Orbital Elements at Epoch 2459000.5 (2020-May-31.0) TDB
Reference: JPL 18 (heliocentric ecliptic J2000)
Element | Value | Uncertainty (1-sigma) | Units |
e | .1813682782602562 | 5.3703e-08 | |
a | 3.007428691429056 | 2.6524e-08 | au |
q | 2.461976527674073 | 1.6708e-07 | au |
i | 14.6299525482186 | 5.8903e-06 | deg |
node | 36.14057152199813 | 2.2334e-05 | deg |
peri | 277.7368540575005 | 2.7774e-05 | deg |
M | 326.37708369462 | 2.1241e-05 | deg |
tp | 2459178.419813081484 (2020-Nov-24.91981308) | 0.00011377 | TDB |
period | 1904.984449522162 5.22 | 2.5202e-05 6.9e-08 | d yr |
n | .188977920575835 | 2.5001e-09 | deg/d |
Q | 3.552880855184039 | 3.1335e-08 | au |
|
| | Orbit Determination Parameters
Additional Information
|